| time (UTC) | temp C | wind direction | speed KPH | gust KPH | rain 1hr cm | rain 24hr cm | rain mn cm | humidity % | barometer mb |
| 20260503024620 | 20 | 97 | 8.0 | 12.9 | 0.00 | 0.00 | 0.00 | 56 | 1009.2 |
| 20260503023421 | 19 | 116 | 8.0 | 9.7 | 0.00 | 0.00 | 0.00 | 58 | 1009.5 |
| 20260503022221 | 19 | 57 | 3.2 | 9.7 | 0.00 | 0.00 | 0.00 | 62 | 1009.6 |
| 20260503021023 | 19 | 128 | 3.2 | 9.7 | 0.00 | 0.00 | 0.00 | 63 | 1010.3 |
| 20260503015821 | 18 | 62 | 0.0 | 4.8 | 0.00 | 0.00 | 0.00 | 64 | 1010.3 |
| 20260503014620 | 19 | 32 | 3.2 | 4.8 | 0.00 | 0.00 | 0.00 | 65 | 1010.6 |
| 20260503013420 | 18 | 18 | 0.0 | 3.2 | 0.00 | 0.00 | 0.00 | 67 | 1010.7 |
| 20260503012219 | 17 | 82 | 0.0 | 3.2 | 0.00 | 0.00 | 0.00 | 69 | 1011.0 |
| 20260503011021 | 17 | 271 | 0.0 | 0.0 | 0.00 | 0.00 | 0.00 | 69 | 1011.2 |
| 20260503005821 | 16 | 251 | 0.0 | 0.0 | 0.00 | 0.00 | 0.00 | 72 | 1011.4 |
| 20260503004622 | 15 | 262 | 1.6 | 1.6 | 0.00 | 0.00 | 0.00 | 75 | 1011.3 |
| 20260503003421 | 15 | 300 | 1.6 | 1.6 | 0.00 | 0.00 | 0.00 | 81 | 1011.4 |
| 20260503002221 | 15 | 353 | 0.0 | 1.6 | 0.00 | 0.00 | 0.00 | 84 | 1011.5 |
| 20260503001023 | 15 | 9 | 1.6 | 4.8 | 0.00 | 0.00 | 0.00 | 84 | 1011.9 |
| 20260502235821 | 14 | 123 | 1.6 | 3.2 | 0.00 | 0.00 | 0.00 | 83 | 1012.3 |
| 20260502234621 | 13 | 257 | 1.6 | 3.2 | 0.00 | 0.00 | 0.00 | 87 | 1012.6 |
| 20260502233421 | 13 | 244 | 0.0 | 0.0 | 0.00 | 0.00 | 0.00 | 87 | 1012.5 |
| 20260502232221 | 13 | 188 | 0.0 | 0.0 | 0.00 | 0.00 | 0.00 | 86 | 1012.3 |
| 20260502224621 | 12 | 42 | 1.6 | 3.2 | 0.00 | 0.00 | 0.00 | 90 | 1012.4 |
| 20260502223423 | 12 | 13 | 0.0 | 0.0 | 0.00 | 0.00 | 0.00 | 91 | 1012.8 |
| 20260502222221 | 12 | 71 | 0.0 | 0.0 | 0.00 | 0.00 | 0.00 | 93 | 1012.8 |
| 20260502221022 | 12 | 91 | 0.0 | 0.0 | 0.00 | 0.00 | 0.00 | 94 | 1012.8 |
| 20260502215821 | 11 | 62 | 0.0 | 0.0 | 0.00 | 0.00 | 0.00 | 94 | 1012.7 |
| 20260502214621 | 11 | 185 | 0.0 | 0.0 | 0.00 | 0.00 | 0.00 | 94 | 1012.5 |
| 20260502213420 | 11 | 55 | 0.0 | 0.0 | 0.00 | 0.00 | 0.00 | 94 | 1012.6 |
| 20260502212222 | 11 | 70 | 0.0 | 0.0 | 0.00 | 0.00 | 0.00 | 94 | 1012.4 |
| 20260502211020 | 11 | 70 | 0.0 | 0.0 | 0.00 | 0.00 | 0.00 | 95 | 1012.5 |
| 20260502205821 | 11 | 42 | 0.0 | 0.0 | 0.00 | 0.00 | 0.00 | 96 | 1012.2 |
| 20260502204621 | 11 | 41 | 0.0 | 0.0 | 0.00 | 0.00 | 0.00 | 96 | 1012.1 |
| 20260502203419 | 11 | 111 | 0.0 | 0.0 | 0.00 | 0.00 | 0.00 | 95 | 1011.8 |
| 20260502202220 | 10 | 122 | 0.0 | 0.0 | 0.00 | 0.00 | 0.00 | 96 | 1011.8 |
| 20260502201021 | 11 | 201 | 0.0 | 0.0 | 0.00 | 0.00 | 0.00 | 95 | 1011.9 |
| 20260502195820 | 11 | 192 | 0.0 | 1.6 | 0.00 | 0.00 | 0.00 | 95 | 1011.8 |
| 20260502194620 | 11 | 209 | 1.6 | 3.2 | 0.00 | 0.00 | 0.00 | 95 | 1011.8 |
| 20260502193419 | 11 | 236 | 0.0 | 0.0 | 0.00 | 0.00 | 0.00 | 94 | 1011.5 |
| 20260502192219 | 11 | 237 | 0.0 | 1.6 | 0.00 | 0.00 | 0.00 | 93 | 1011.7 |
| 20260502191021 | 11 | 58 | 0.0 | 0.0 | 0.00 | 0.00 | 0.00 | 92 | 1011.4 |
| 20260502185822 | 11 | 49 | 1.6 | 3.2 | 0.00 | 0.00 | 0.00 | 92 | 1011.5 |
| 20260502184621 | 11 | 56 | 0.0 | 1.6 | 0.00 | 0.00 | 0.00 | 94 | 1011.8 |
| 20260502183421 | 11 | 243 | 0.0 | 0.0 | 0.00 | 0.00 | 0.00 | 93 | 1011.6 |
| 20260502182221 | 11 | 244 | 1.6 | 3.2 | 0.00 | 0.00 | 0.00 | 93 | 1011.5 |
| 20260502181020 | 11 | 175 | 0.0 | 0.0 | 0.00 | 0.00 | 0.00 | 91 | 1011.6 |
| 20260502163422 | 11 | 240 | 0.0 | 0.0 | 0.00 | 0.00 | 0.00 | 89 | 1011.7 |
| 20260502161021 | 10 | 253 | 1.6 | 3.2 | 0.00 | 0.00 | 0.00 | 88 | 1011.6 |
| 20260502152222 | 11 | 291 | 0.0 | 0.0 | 0.00 | 0.00 | 0.00 | 88 | 1012.0 |
| 20260502151021 | 11 | 249 | 1.6 | 1.6 | 0.00 | 0.00 | 0.00 | 87 | 1011.9 |
| 20260502123421 | 13 | 323 | 1.6 | 3.2 | 0.00 | 0.00 | 0.00 | 76 | 1011.1 |
| 20260502122221 | 14 | 190 | 1.6 | 3.2 | 0.00 | 0.00 | 0.00 | 75 | 1011.0 |
| 20260502121021 | 14 | 229 | 1.6 | 3.2 | 0.00 | 0.00 | 0.00 | 73 | 1011.1 |
| 20260502115821 | 14 | 272 | 3.2 | 4.8 | 0.00 | 0.00 | 0.00 | 73 | 1010.8 |
| 20260502114620 | 14 | 235 | 3.2 | 8.0 | 0.00 | 0.00 | 0.00 | 73 | 1011.0 |
| 20260502113420 | 15 | 268 | 3.2 | 4.8 | 0.00 | 0.00 | 0.00 | 71 | 1010.5 |
| 20260502112220 | 15 | 226 | 1.6 | 4.8 | 0.00 | 0.00 | 0.00 | 69 | 1010.5 |
| 20260502111021 | 15 | 260 | 1.6 | 3.2 | 0.00 | 0.00 | 0.00 | 69 | 1010.2 |
| 20260502105821 | 16 | 274 | 1.6 | 3.2 | 0.00 | 0.00 | 0.00 | 66 | 1010.1 |
| 20260502104620 | 16 | 260 | 1.6 | 3.2 | 0.00 | 0.00 | 0.00 | 65 | 1009.6 |
| 20260502103424 | 16 | 234 | 3.2 | 3.2 | 0.00 | 0.00 | 0.00 | 62 | 1009.4 |
| 20260502101020 | 17 | 228 | 3.2 | 8.0 | 0.00 | 0.00 | 0.00 | 63 | 1009.3 |
| 20260502091020 | 19 | 240 | 4.8 | 8.0 | 0.00 | 0.51 | 0.00 | 58 | 1008.5 |
| 20260502071020 | 23 | 52 | 19.3 | 25.7 | 0.00 | 0.51 | 0.00 | 34 | 1006.3 |
| 20260502065821 | 23 | 45 | 16.1 | 22.5 | 0.00 | 0.51 | 0.00 | 34 | 1006.2 |
| 20260502064621 | 25 | 53 | 22.5 | 29.0 | 0.00 | 0.51 | 0.00 | 33 | 1005.7 |
| 20260502063420 | 26 | 328 | 1.6 | 4.8 | 0.00 | 0.51 | 0.00 | 27 | 1005.7 |
| 20260502062221 | 25 | 345 | 9.7 | 14.5 | 0.00 | 0.51 | 0.00 | 28 | 1005.5 |
| 20260502061020 | 26 | 357 | 1.6 | 4.8 | 0.00 | 0.51 | 0.00 | 29 | 1005.2 |
| 20260502055820 | 26 | 27 | 4.8 | 20.9 | 0.00 | 0.51 | 0.00 | 28 | 1005.3 |
| 20260502054620 | 26 | 358 | 8.0 | 14.5 | 0.00 | 0.51 | 0.00 | 29 | 1005.2 |
| 20260502053420 | 26 | 319 | 1.6 | 8.0 | 0.00 | 0.51 | 0.00 | 27 | 1005.0 |
| 20260502052220 | 26 | 3 | 11.3 | 19.3 | 0.00 | 0.51 | 0.00 | 28 | 1005.0 |
| 20260502051021 | 25 | 43 | 1.6 | 11.3 | 0.00 | 0.51 | 0.00 | 29 | 1005.1 |
| 20260502044620 | 25 | 78 | 11.3 | 27.4 | 0.00 | 0.51 | 0.00 | 29 | 1004.9 |
| 20260502043420 | 25 | 352 | 14.5 | 24.1 | 0.00 | 0.51 | 0.00 | 28 | 1005.2 |
| 20260502042221 | 25 | 226 | 16.1 | 29.0 | 0.00 | 0.51 | 0.00 | 28 | 1005.0 |
| 20260502041021 | 25 | 22 | 3.2 | 8.0 | 0.00 | 0.51 | 0.00 | 27 | 1005.3 |
| 20260502035821 | 24 | 248 | 11.3 | 20.9 | 0.00 | 0.51 | 0.00 | 27 | 1005.0 |
| 20260502034620 | 24 | 302 | 25.7 | 41.8 | 0.00 | 0.51 | 0.00 | 28 | 1005.5 |
| 20260502033421 | 23 | 296 | 27.4 | 51.5 | 0.00 | 0.51 | 0.00 | 28 | 1005.5 |
| 20260502032221 | 23 | 332 | 19.3 | 32.2 | 0.00 | 0.51 | 0.00 | 30 | 1005.2 |
| 20260502031020 | 23 | 297 | 16.1 | 24.1 | 0.00 | 0.51 | 0.00 | 30 | 1005.2 |
| 20260502025820 | 23 | 300 | 25.7 | 46.7 | 0.00 | 0.51 | 0.00 | 31 | 1005.1 |